Location: Petruro
(41.0333°N, 14.7833°E)
Time: 14:38:20
(UTC+00:00)

CZ-4C R/B - Pass Details

Date: 20 June 2021
Orbit: 605 x 1396 km, 63.4° (Epoch: 04 August)

Event Time Altitude Azimuth Distance (km) Brightness Sun altitude
Exits shadow 01:11:20 17° 151° (SSE) 1,697 3.5 -18.9°
Maximum altitude 01:13:45 25° 110° (ESE) 1,431 3.5 -18.7°
Drops below altitude 10° 01:18:01 10° 57° (ENE) 2,372 5.5 -18.3°
Sets 01:21:04 0° 45° (NE) 3,448 7.0 -18.0°
